Location: Pensacola
(30.4142°N, 87.2155°W)
Time: 19:56:42
(UTC-05:00)

Envisat - Visible Passes

Search period start: 22 June 2018 00:00
Search period end: 02 July 2018 00:00
Orbit: 764 x 766 km, 98.2° (Epoch: 22 June)

Date Brightness Start Highest point End Pass type
(mag) Time Alt. Az. Time Alt. Az. Time Alt. Az.
22 Jun 4.3 20:43:52 10° SSW 20:48:36 40° W 20:53:21 10° NNW visible
24 Jun 5.3 21:10:29 10° SW 21:14:17 21° W 21:18:05 10° NW visible
25 Jun 3.8 20:32:29 10° S 20:37:25 52° W 20:42:22 10° NNW visible
26 Jun 5.9 21:39:03 10° WSW 21:40:03 11° W 21:41:02 10° W visible
27 Jun 4.9 20:58:47 10° SSW 21:03:04 27° W 21:07:22 10° NW visible
28 Jun 3.4 20:21:12 10° S 20:26:15 69° WSW 20:31:19 10° NNW visible
29 Jun 5.6 21:26:06 10° SW 21:28:47 14° W 21:31:29 10° WNW visible
30 Jun 4.5 20:47:14 10° SSW 20:51:52 36° W 20:56:30 10° NNW visible
